TimeCST,TemperatureF,Dew PointF,Humidity,Sea Level PressureIn,VisibilityMPH,Wind Direction,Wind SpeedMPH,Gust SpeedMPH,PrecipitationIn,Events,Conditions,WindDirDegrees,DateUTC
12:15 AM,25.7,18.3,74,29.93,10.0,West,3.5,-,N/A,,Clear,260,2013-02-13 06:15:00
12:35 AM,27.5,20.5,75,29.93,10.0,West,3.5,-,N/A,,Clear,260,2013-02-13 06:35:00
12:55 AM,27.0,20.3,76,29.93,10.0,Calm,Calm,-,N/A,,Clear,0,2013-02-13 06:55:00
1:15 AM,27.0,20.5,77,29.92,10.0,Calm,Calm,-,N/A,,Clear,0,2013-02-13 07:15:00
1:35 AM,27.3,20.8,77,29.92,10.0,Calm,Calm,-,N/A,,Clear,0,2013-02-13 07:35:00
1:55 AM,25.9,20.1,79,29.92,10.0,West,3.5,-,N/A,,Clear,270,2013-02-13 07:55:00
2:15 AM,26.1,20.7,80,29.92,10.0,Calm,Calm,-,N/A,,Clear,0,2013-02-13 08:15:00
2:35 AM,26.8,20.5,77,29.92,10.0,West,5.8,-,N/A,,Clear,270,2013-02-13 08:35:00
2:55 AM,27.9,21.2,76,29.92,10.0,West,4.6,-,N/A,,Clear,280,2013-02-13 08:55:00
3:15 AM,27.9,21.0,75,29.91,10.0,West,5.8,-,N/A,,Clear,270,2013-02-13 09:15:00
3:35 AM,27.5,21.0,77,29.90,10.0,West,4.6,-,N/A,,Clear,280,2013-02-13 09:35:00
3:55 AM,27.5,21.2,77,29.90,10.0,West,5.8,-,N/A,,Clear,280,2013-02-13 09:55:00
4:15 AM,27.1,21.0,78,29.89,10.0,West,4.6,-,N/A,,Clear,280,2013-02-13 10:15:00
4:35 AM,27.3,20.5,75,29.89,10.0,West,4.6,-,N/A,,Clear,260,2013-02-13 10:35:00
4:55 AM,26.4,20.5,78,29.89,10.0,West,6.9,-,N/A,,Clear,280,2013-02-13 10:55:00
5:15 AM,26.6,20.7,78,29.89,10.0,West,6.9,-,N/A,,Clear,270,2013-02-13 11:15:00
5:35 AM,27.1,20.5,76,29.88,10.0,West,6.9,-,N/A,,Clear,260,2013-02-13 11:35:00
5:55 AM,24.8,19.4,80,29.88,10.0,West,4.6,-,N/A,,Clear,270,2013-02-13 11:55:00
6:15 AM,26.1,19.9,78,29.88,10.0,West,4.6,-,N/A,,Clear,270,2013-02-13 12:15:00
6:35 AM,26.1,19.9,78,29.87,10.0,West,5.8,-,N/A,,Clear,280,2013-02-13 12:35:00
6:55 AM,25.0,19.2,79,29.88,10.0,West,3.5,-,N/A,,Clear,280,2013-02-13 12:55:00
7:15 AM,26.4,20.7,79,29.88,10.0,West,6.9,-,N/A,,Clear,270,2013-02-13 13:15:00
7:35 AM,26.2,21.0,81,29.89,10.0,West,9.2,-,N/A,,Clear,270,2013-02-13 13:35:00
7:55 AM,27.1,21.7,80,29.88,10.0,West,6.9,-,N/A,,Clear,270,2013-02-13 13:55:00
8:15 AM,28.2,22.5,79,29.88,10.0,West,5.8,-,N/A,,Clear,270,2013-02-13 14:15:00
8:35 AM,30.2,23.9,77,29.88,10.0,West,6.9,-,N/A,,Clear,270,2013-02-13 14:35:00
8:55 AM,31.1,24.8,77,29.88,10.0,West,6.9,-,N/A,,Clear,270,2013-02-13 14:55:00
9:15 AM,32.5,26.2,78,29.88,10.0,West,5.8,-,N/A,,Clear,260,2013-02-13 15:15:00
9:35 AM,34.0,26.2,73,29.88,10.0,West,4.6,-,N/A,,Clear,280,2013-02-13 15:35:00
9:55 AM,34.7,26.2,71,29.88,10.0,West,5.8,-,N/A,,Clear,260,2013-02-13 15:55:00
10:15 AM,36.5,27.0,68,29.88,10.0,WSW,6.9,-,N/A,,Clear,250,2013-02-13 16:15:00
10:35 AM,38.1,26.6,63,29.87,10.0,WSW,3.5,-,N/A,,Clear,240,2013-02-13 16:35:00
10:55 AM,39.4,25.3,57,29.87,10.0,West,5.8,-,N/A,,Clear,260,2013-02-13 16:55:00
11:15 AM,41.2,25.5,54,29.87,10.0,West,4.6,-,N/A,,Clear,270,2013-02-13 17:15:00
11:35 AM,43.5,25.3,49,29.87,10.0,West,9.2,-,N/A,,Clear,260,2013-02-13 17:35:00
11:55 AM,44.6,25.0,46,29.86,10.0,West,8.1,-,N/A,,Clear,270,2013-02-13 17:55:00
12:15 PM,46.9,25.3,43,29.85,10.0,West,9.2,-,N/A,,Clear,260,2013-02-13 18:15:00
12:35 PM,47.7,24.8,41,29.84,10.0,WSW,8.1,-,N/A,,Clear,240,2013-02-13 18:35:00
12:55 PM,48.7,24.3,38,29.83,10.0,SW,9.2,-,N/A,,Clear,220,2013-02-13 18:55:00
1:15 PM,50.4,22.6,34,29.82,10.0,WSW,9.2,-,N/A,,Clear,250,2013-02-13 19:15:00
1:35 PM,51.8,21.2,30,29.81,10.0,West,11.5,-,N/A,,Clear,280,2013-02-13 19:35:00
1:55 PM,53.1,20.7,28,29.80,10.0,West,11.5,-,N/A,,Clear,260,2013-02-13 19:55:00
2:15 PM,54.1,19.8,26,29.79,10.0,West,11.5,-,N/A,,Clear,270,2013-02-13 20:15:00
2:35 PM,54.7,19.8,26,29.79,10.0,West,15.0,-,N/A,,Clear,260,2013-02-13 20:35:00
2:55 PM,54.5,18.9,25,29.78,10.0,West,15.0,-,N/A,,Clear,280,2013-02-13 20:55:00
3:15 PM,54.7,17.6,23,29.78,10.0,West,13.8,20.7,N/A,,Clear,280,2013-02-13 21:15:00
3:35 PM,54.9,17.4,23,29.77,10.0,West,13.8,-,N/A,,Clear,270,2013-02-13 21:35:00
3:55 PM,55.0,17.8,23,29.77,10.0,West,11.5,-,N/A,,Clear,260,2013-02-13 21:55:00
4:15 PM,54.9,17.6,23,29.76,10.0,West,15.0,18.4,N/A,,Clear,270,2013-02-13 22:15:00
4:35 PM,53.2,18.0,25,29.76,10.0,West,11.5,19.6,N/A,,Clear,270,2013-02-13 22:35:00
4:55 PM,53.4,19.8,27,29.77,10.0,West,10.4,-,N/A,,Clear,280,2013-02-13 22:55:00
5:15 PM,52.7,20.3,28,29.77,10.0,West,11.5,-,N/A,,Clear,280,2013-02-13 23:15:00
5:35 PM,51.3,20.3,30,29.77,10.0,West,9.2,-,N/A,,Clear,270,2013-02-13 23:35:00
5:55 PM,48.7,21.4,34,29.77,10.0,West,8.1,-,N/A,,Clear,260,2013-02-13 23:55:00
6:15 PM,44.8,22.3,41,29.77,10.0,West,8.1,-,N/A,,Clear,260,2013-02-14 00:15:00
6:35 PM,44.2,22.5,42,29.78,10.0,WSW,6.9,-,N/A,,Clear,250,2013-02-14 00:35:00
6:55 PM,44.1,23.5,44,29.78,10.0,WSW,6.9,-,N/A,,Scattered Clouds,240,2013-02-14 00:55:00
7:15 PM,43.9,23.0,44,29.78,10.0,WSW,8.1,-,N/A,,Scattered Clouds,250,2013-02-14 01:15:00
7:35 PM,42.6,23.0,46,29.78,10.0,West,6.9,-,N/A,,Scattered Clouds,260,2013-02-14 01:35:00
7:55 PM,42.4,22.8,46,29.79,10.0,West,8.1,-,N/A,,Clear,270,2013-02-14 01:55:00
8:15 PM,43.5,23.7,46,29.79,10.0,West,10.4,-,N/A,,Clear,270,2013-02-14 02:15:00
8:35 PM,42.1,23.9,49,29.79,10.0,West,9.2,-,N/A,,Clear,270,2013-02-14 02:35:00
8:55 PM,41.0,24.1,51,29.79,10.0,West,8.1,-,N/A,,Clear,270,2013-02-14 02:55:00
9:15 PM,39.7,24.3,54,29.79,10.0,West,9.2,-,N/A,,Clear,270,2013-02-14 03:15:00
9:35 PM,39.6,24.3,54,29.80,10.0,West,10.4,-,N/A,,Clear,270,2013-02-14 03:35:00
9:55 PM,38.7,24.4,57,29.80,10.0,West,9.2,-,N/A,,Clear,270,2013-02-14 03:55:00
10:15 PM,38.5,24.8,58,29.80,10.0,West,9.2,-,N/A,,Clear,270,2013-02-14 04:15:00
10:35 PM,37.9,24.6,59,29.80,10.0,West,6.9,-,N/A,,Clear,280,2013-02-14 04:35:00
10:55 PM,36.3,25.2,64,29.80,10.0,West,6.9,-,N/A,,Clear,280,2013-02-14 04:55:00
11:15 PM,36.5,25.7,65,29.81,10.0,West,6.9,-,N/A,,Clear,270,2013-02-14 05:15:00
11:35 PM,36.3,25.9,66,29.83,10.0,WNW,9.2,-,N/A,,Clear,290,2013-02-14 05:35:00
11:55 PM,36.0,26.2,68,29.83,10.0,WNW,6.9,-,N/A,,Scattered Clouds,290,2013-02-14 05:55:00